Flag for U.S.A. Weather past 2 weeks in Nashville, Tennessee, U.S.A.

Now
27 °F

Scattered clouds.


Feels Like: 17 °F
Forecast: 20 / 30 °F
Wind: 12 mph from Northeast

Location: Nashville International Airport

Current Time: Feb 27, 2015 at 11:02:40 AM

Latest Report: Feb 27, 2015 at 9:53 AM


Visibility: 10 mi

Pressure: 30.59 "Hg

Humidity: 46%

Dew point: 9 °F

Location of NashvilleLocation

Historic Weather in Nashville — Graph

°F

Nashville temperature yesterday

Maximum temperature yesterday: 46 °F (at 1:53 PM)
Minimum temperature yesterday: 26 °F (at 11:53 PM)
Average temperature yesterday: 34 °F

Past Weeks' High & Low Weather Summary

 TemperatureHumidityPressure
High51 °F (Feb 14, 12:53 PM)100% (Feb 21, 11:58 AM)30.59 "Hg (Feb 21, 11:58 AM)
Low6 °F (Feb 19, 4:53 AM)27% (Feb 13, 2:53 PM)29.81 "Hg (Feb 25, 5:53 PM)
Average27 °F65%30.21 "Hg
* Reported Feb 12 9:53 AM — Feb 27 9:53 AM, Nashville, Weather by CustomWeather, © 2015

Note: Actual official high and low records may vary slightly from our data, if they occured in-between our weather recording intervals... More about our weather records

Advertising

Nashville weather history for previous 24 hours

 ConditionsComfort  
Time TempWeatherWind HumidityBarometerVisibility
9:53 AM
Fri, Feb 27
27 °FScattered clouds.12 mph46%30.59 "Hg10 mi
8:53 AM25 °FScattered clouds.12 mph48%30.58 "Hg10 mi
7:53 AM22 °FBroken clouds.8 mph62%30.56 "Hg10 mi
6:53 AM19 °FScattered clouds.9 mph77%30.54 "Hg10 mi
5:53 AM19 °FScattered clouds.9 mph77%30.51 "Hg10 mi
4:53 AM20 °FPassing clouds.10 mph74%30.48 "Hg10 mi
3:53 AM20 °FOvercast.10 mph74%30.46 "Hg10 mi
2:53 AM22 °FOvercast.10 mph72%30.44 "Hg10 mi
1:53 AM24 °FOvercast.12 mph65%30.42 "Hg10 mi
12:53 AM25 °FOvercast.13 mph66%30.39 "Hg10 mi
11:53 PM
Thu, Feb 26
26 °FOvercast.13 mph66%30.37 "Hg10 mi
10:53 PM27 °FOvercast.8 mph69%30.36 "Hg10 mi
9:53 PM28 °FMostly cloudy.13 mph69%30.34 "Hg10 mi
8:53 PM29 °FMostly cloudy.15 mph64%30.32 "Hg10 mi
7:53 PM31 °FOvercast.13 mph73%30.28 "Hg10 mi
7:00 PM32 °FMostly cloudy.14 mph64%30.24 "Hg10 mi
5:53 PM34 °FOvercast.9 mph64%30.20 "Hg10 mi
4:53 PM36 °FOvercast.10 mph57%30.16 "Hg10 mi
3:53 PM39 °FMostly cloudy.13 mph55%30.12 "Hg10 mi
2:53 PM42 °FPartly sunny.16 mph45%30.09 "Hg10 mi
1:53 PM46 °FBroken clouds.14 mph38%30.06 "Hg10 mi
12:53 PM44 °FCloudy.9 mph43%30.05 "Hg10 mi
11:53 AM43 °FBroken clouds.8 mph49%30.05 "Hg10 mi
Weather by CustomWeather, © 2015

See weather overviewHow to use our weather pages